FENGYUN 1C DEB

Satellite information

Favourite Embed

Satellite Type and Status

DEBRISIN ORBIT

Key statistics

Satellite FENGYUN 1C DEB at a glance.

Uptime

9672

Days in orbit

Revolutions

≈ 14.3

Per day

Orbit

SSO

Sun Synchronous Orbit

Inclination

99.3

Latest

Satellite identification and parameters

Extended collection of information and parameters for FENGYUN 1C DEB.

Object identification

Identified? True

Debris? True

Object name: FENGYUN 1C DEB

International designator: 1999-025BFS

Object number (NORAD): 31072

Object ID (CCSDS): 31072

Country: PEOPLES REPUBLIC OF CHINA (PRC)

Current information (Y/N): Y

RCS size: SMALL

Orbital parameters

Period: 101.032 minutes

Inclination: 99.3341 deg

SMA: 7185.665 km

Apoapsis: 958.09 km

Periapsis: 656.97 km

RAAN: 305.5259 deg

Eccentricy: 0.02095283

Argument of periapsis: 222.5975 deg

Mean anomaly: 135.8788 deg

Mean motion: 14.25287015 rev/day

Mean motion (dot): 0.00002163 rev/day2

B* drag term: 0.00074893962 1/REarth

Two-line elements (TLE)

Creation date: Oct. 30, 2025, 3:32 a.m.

Reference frame: TEME

Reference center: EARTH

Epoch: Oct. 29, 2025, 10:55 p.m. UTC

TLE line 0: 0 FENGYUN 1C DEB

TLE line 1: 1 31072U 99025BFS 25302.95551091 .00002163 00000-0 74894-3 0 9992

TLE line 2: 2 31072 99.3341 305.5259 0209528 222.5975 135.8788 14.25287015960191

Live tracking on map

Real-time ground track for satellite FENGYUN 1C DEB.

In-orbit conjunctions

A list of the most updated potential collisions computed for object FENGYUN 1C DEB.

Target Orbit TCA Probability of collision Miss distance Type
SL-16 R/B LEO 2025-09-11 06:02:58 0.000131469 464.0 (m) ROCKET BODY
THORAD AGENA D DEB LEO 2024-06-27 00:03:27 0.001222858 30.0 (m) DEBRIS

Associated space launch

Chinese polar orbiting meteorological satellite

FENGYUN 1C DEB was lifted into orbit during the mission ‘Long March 4B | Feng Yun 1C’, on board a Long March 4B space rocket.

The launch took place on May 10, 1999, 1:33 a.m. from Launch Complex 7.

For more information about the launch, click the button.

Launch to space Long March 4B | Feng Yun 1C
Long March 4B | Feng Yun 1C

Agency: N/A

Status: Launch Successful

Launch date: May 10, 1999, 1:33 a.m. UTC

Rocket: Long March 4B

Launch pad: Launch Complex 7

Location: Taiyuan Satellite Launch Center, People's Republic of China

...

Latest news about this satellite

There are no fresh news available about this satellite. Check back as we update our databases every day.


Newsletter sign-up

Weekly statistics, charts and insights to help you stay on top of the space industry.